When you browse on this site, cookies collect data to enhance your experience and personalize the content and advertising you see.
Visit our Privacy Policy to learn more. By continuing to use the site, you agree to this use of cookies and data.
  • En España
  • Lista de países
  • Para 7 días
  • Temperatura del agua
  • El tiempo en el mapa
  • Informadores
  • user-avatar
    Iniciar sesión

    Tiempo cada hora Saurimo

    Hoy, 24 Agosto, Sábado

    Tiempo Temperatura Precipitaciones Viento Presión Humedad
    00:00 +19°C° 0 mm 2 mps 672 mmHg 35%
    01:00 +18°C° 0 mm 2 mps 672 mmHg 36%
    02:00 +17°C° 0 mm 2 mps 671 mmHg 36%
    03:00 +17°C° 0 mm 2 mps 671 mmHg 37%
    04:00 +16°C° 0 mm 2 mps 671 mmHg 37%
    05:00 +17°C° 0 mm 3 mps 672 mmHg 35%
    06:00 +18°C° 0 mm 3 mps 672 mmHg 33%
    07:00 +19°C° 0 mm 4 mps 673 mmHg 31%
    08:00 +22°C° 0 mm 4 mps 674 mmHg 26%
    09:00 +27°C° 0 mm 4 mps 674 mmHg 22%
    10:00 +30°C° 0 mm 4 mps 675 mmHg 18%
    11:00 +32°C° 0 mm 4 mps 674 mmHg 16%
    12:00 +34°C° 0 mm 3 mps 674 mmHg 14%
    13:00 +36°C° 0 mm 2 mps 673 mmHg 12%
    14:00 +35°C° 0 mm 2 mps 672 mmHg 12%
    15:00 +35°C° 0 mm 2 mps 672 mmHg 12%
    16:00 +34°C° 0 mm 1 mps 671 mmHg 12%
    17:00 +31°C° 0 mm 1 mps 671 mmHg 15%
    18:00 +28°C° 0 mm 1 mps 671 mmHg 18%
    19:00 +25°C° 0 mm 1 mps 671 mmHg 21%
    20:00 +24°C° 0 mm 1 mps 671 mmHg 22%
    21:00 +23°C° 0 mm 1 mps 671 mmHg 23%
    22:00 +21°C° 0 mm 2 mps 671 mmHg 25%
    23:00 +20°C° 0 mm 2 mps 671 mmHg 26%

    Mañana, 25 Agosto, Domingo

    Tiempo Temperatura Precipitaciones Viento Presión Humedad
    00:00 +20°C° 0 mm 2 mps 671 mmHg 28%
    01:00 +19°C° 0 mm 2 mps 670 mmHg 29%
    02:00 +18°C° 0 mm 2 mps 670 mmHg 30%
    03:00 +18°C° 0 mm 2 mps 670 mmHg 30%
    04:00 +18°C° 0 mm 2 mps 670 mmHg 30%
    05:00 +19°C° 0 mm 3 mps 671 mmHg 28%
    06:00 +20°C° 0 mm 3 mps 671 mmHg 27%
    07:00 +20°C° 0 mm 4 mps 672 mmHg 25%
    08:00 +25°C° 0 mm 4 mps 672 mmHg 22%
    09:00 +28°C° 0 mm 4 mps 673 mmHg 19%
    10:00 +32°C° 0 mm 4 mps 673 mmHg 16%
    11:00 +34°C° 0 mm 4 mps 673 mmHg 15%
    12:00 +35°C° 0 mm 3 mps 672 mmHg 14%
    13:00 +37°C° 0 mm 2 mps 672 mmHg 13%
    14:00 +37°C° 0 mm 2 mps 671 mmHg 13%
    15:00 +35°C° 0 mm 1 mps 671 mmHg 13%
    16:00 +35°C° 0 mm 1 mps 670 mmHg 14%
    17:00 +32°C° 0 mm 1 mps 670 mmHg 16%
    18:00 +29°C° 0 mm 1 mps 670 mmHg 19%
    19:00 +26°C° 0 mm 1 mps 670 mmHg 22%
    20:00 +25°C° 0 mm 1 mps 670 mmHg 23%
    21:00 +24°C° 0 mm 1 mps 670 mmHg 24%
    22:00 +24°C° 0 mm 1 mps 670 mmHg 25%
    23:00 +23°C° 0 mm 1 mps 670 mmHg 26%

    Pasado mañana, 26 Agosto, Lunes

    Tiempo Temperatura Precipitaciones Viento Presión Humedad
    00:00 +22°C° 0 mm 1 mps 670 mmHg 28%
    01:00 +21°C° 0 mm 1 mps 670 mmHg 29%
    02:00 +21°C° 0 mm 1 mps 670 mmHg 30%
    03:00 +20°C° 0 mm 1 mps 670 mmHg 31%
    04:00 +20°C° 0 mm 1 mps 670 mmHg 32%
    05:00 +21°C° 0 mm 1 mps 671 mmHg 31%
    06:00 +22°C° 0 mm 1 mps 671 mmHg 30%
    07:00 +22°C° 0 mm 1 mps 672 mmHg 29%
    08:00 +27°C° 0 mm 1 mps 673 mmHg 26%
    09:00 +31°C° 0 mm 1 mps 674 mmHg 22%
    10:00 +35°C° 0 mm 1 mps 674 mmHg 18%
    11:00 +36°C° 0 mm 1 mps 673 mmHg 17%
    12:00 +37°C° 0 mm 2 mps 673 mmHg 16%
    13:00 +38°C° 0 mm 2 mps 672 mmHg 15%
    14:00 +37°C° 0 mm 2 mps 671 mmHg 17%
    15:00 +35°C° 0 mm 1 mps 670 mmHg 18%
    16:00 +32°C° 0 mm 0 mps 670 mmHg 20%
    17:00 +30°C° 0 mm 0 mps 670 mmHg 22%
    18:00 +28°C° 0 mm 0 mps 670 mmHg 25%
    19:00 +25°C° 0 mm 0 mps 670 mmHg 28%
    20:00 +24°C° 0 mm 0 mps 670 mmHg 30%
    21:00 +23°C° 0 mm 0 mps 670 mmHg 32%
    22:00 +24°C° 0 mm 1 mps 671 mmHg 34%
    23:00 +24°C° 0 mm 1 mps 671 mmHg 36%

    27 Agosto, Martes

    Tiempo Temperatura Precipitaciones Viento Presión Humedad
    00:00 +23°C° 0 mm 1 mps 670 mmHg 38%
    01:00 +21°C° 0 mm 0 mps 670 mmHg 40%
    02:00 +20°C° 0 mm 0 mps 670 mmHg 44%
    03:00 +21°C° 0 mm 1 mps 670 mmHg 48%
    04:00 +21°C° 0 mm 1 mps 670 mmHg 51%
    05:00 +22°C° 0 mm 1 mps 671 mmHg 49%
    06:00 +22°C° 0 mm 1 mps 672 mmHg 48%
    07:00 +23°C° 0 mm 1 mps 672 mmHg 46%
    08:00 +27°C° 0 mm 1 mps 673 mmHg 40%
    09:00 +31°C° 0 mm 1 mps 674 mmHg 34%
    10:00 +34°C° 0 mm 1 mps 674 mmHg 28%
    11:00 +36°C° 0 mm 2 mps 674 mmHg 26%
    12:00 +37°C° 0 mm 2 mps 673 mmHg 23%
    13:00 +37°C° 0 mm 2 mps 672 mmHg 21%
    14:00 +36°C° 0 mm 2 mps 672 mmHg 22%
    15:00 +36°C° 0 mm 2 mps 671 mmHg 23%
    16:00 +34°C° 0 mm 1 mps 670 mmHg 25%
    17:00 +31°C° 0 mm 1 mps 670 mmHg 29%
    18:00 +29°C° 0 mm 2 mps 670 mmHg 34%
    19:00 +27°C° 0 mm 2 mps 670 mmHg 39%
    20:00 +26°C° 0 mm 1 mps 670 mmHg 43%
    21:00 +25°C° 0 mm 1 mps 670 mmHg 47%
    22:00 +21°C° 0 mm 0 mps 670 mmHg 51%
    23:00 +21°C° 0 mm 0 mps 670 mmHg 52%

    28 Agosto, Miércoles

    Tiempo Temperatura Precipitaciones Viento Presión Humedad
    00:00 +20°C° 0 mm 0 mps 670 mmHg 53%
    01:00 +20°C° 0 mm 0 mps 669 mmHg 55%
    02:00 +20°C° 0 mm 0 mps 670 mmHg 55%
    03:00 +19°C° 0 mm 0 mps 670 mmHg 56%
    04:00 +21°C° 0 mm 1 mps 670 mmHg 57%
    05:00 +22°C° 0 mm 1 mps 670 mmHg 54%
    06:00 +23°C° 0 mm 1 mps 671 mmHg 51%
    07:00 +24°C° 0 mm 1 mps 671 mmHg 48%
    08:00 +25°C° 0 mm 1 mps 672 mmHg 45%
    09:00 +26°C° 0 mm 1 mps 672 mmHg 42%
    10:00 +28°C° 0 mm 2 mps 672 mmHg 39%
    11:00 +31°C° 0 mm 1 mps 672 mmHg 33%
    12:00 +34°C° 0 mm 1 mps 672 mmHg 27%
    13:00 +37°C° 0 mm 1 mps 672 mmHg 21%
    14:00 +37°C° 0 mm 1 mps 671 mmHg 21%
    15:00 +36°C° 0 mm 1 mps 671 mmHg 21%
    16:00 +36°C° 0 mm 2 mps 670 mmHg 21%
    17:00 +32°C° 0 mm 2 mps 670 mmHg 27%
    18:00 +29°C° 0 mm 1 mps 670 mmHg 32%
    19:00 +27°C° 0 mm 1 mps 669 mmHg 37%
    20:00 +26°C° 0 mm 1 mps 670 mmHg 41%
    21:00 +25°C° 0 mm 1 mps 670 mmHg 46%
    22:00 +24°C° 0 mm 1 mps 670 mmHg 50%
    23:00 +23°C° 0 mm 1 mps 670 mmHg 53%

    29 Agosto, Jueves

    Tiempo Temperatura Precipitaciones Viento Presión Humedad
    00:00 +22°C° 0 mm 1 mps 669 mmHg 56%
    01:00 +21°C° 0 mm 1 mps 669 mmHg 60%
    02:00 +21°C° 0 mm 1 mps 669 mmHg 62%
    03:00 +20°C° 0 mm 1 mps 669 mmHg 64%
    04:00 +20°C° 0 mm 1 mps 669 mmHg 66%
    05:00 +21°C° 0 mm 1 mps 669 mmHg 63%
    06:00 +22°C° 0 mm 1 mps 670 mmHg 60%
    07:00 +23°C° 0 mm 1 mps 671 mmHg 56%
    08:00 +25°C° 0 mm 2 mps 671 mmHg 50%
    09:00 +27°C° 0 mm 2 mps 672 mmHg 44%
    10:00 +29°C° 0 mm 2 mps 672 mmHg 38%
    11:00 +32°C° 0 mm 2 mps 672 mmHg 32%
    12:00 +36°C° 0 mm 2 mps 671 mmHg 25%
    13:00 +39°C° 0 mm 1 mps 671 mmHg 19%
    14:00 +37°C° 0 mm 1 mps 671 mmHg 21%
    15:00 +36°C° 0 mm 1 mps 670 mmHg 22%
    16:00 +34°C° 0 mm 1 mps 669 mmHg 24%
    17:00 +31°C° 0 mm 1 mps 669 mmHg 31%
    18:00 +29°C° 0 mm 2 mps 669 mmHg 37%
    19:00 +26°C° 0 mm 2 mps 669 mmHg 44%
    20:00 +25°C° 0 mm 1 mps 669 mmHg 47%
    21:00 +24°C° 0 mm 1 mps 669 mmHg 51%
    22:00 +24°C° 0 mm 1 mps 669 mmHg 55%
    23:00 +23°C° 0 mm 1 mps 669 mmHg 57%
    Mostrar más